Find OneWeb SL0064

NORAD ID: 45433 Int'l Des: 2020-020 Owner: ONEWEB Country: UK Constellation: oneweb operational
LEOCIRCULARPOLARONEWEB_TYPE

实时位置

正在加载3D地球...

关于 OneWeb SL0064

正在加载描述...

即将过境

Passes for default location (London). Set your location on the main map for personalized predictions.

高度历史

Loading altitude history...

两行轨道根数

1 45433U 20020K 26125.76467253 -.00000684 00000-0 -19661-2 0 9994
2 45433 87.8920 29.5029 0001668 75.1910 284.9403 13.11417838297124
Epoch: May 5, 2026 • Age: 10 hours

当前状态

高度 1228.7 km
速度 7.25 km/s
星下点 70.73°N, 113.41°E
发射日期 Mar 21, 2020
运行时间 6.1 years
类型 internet

技术详情

分类 Payload
质量 148.00 kg
干质量 140.00 kg
总质量 148.00 kg
长度 1.30 m
直径 1.00 m
跨度 5.00 m
形状 Trapezoid+2 pan
制造商 ONEWUS
平台类型 ARROW
阶段状态 In Orbit
所有者/国家 ONEWEB/UK

Most Searched